[[{"header":{"parameterUnit":"m.s-1","parameterCategory":1,"la1":30.2991,"la2":30.254,"lo1":-89.0895,"lo2":-89.0444,"dy":0.0017,"dx":0.0017,"nx":28,"ny":28,"refTime":"2024-10-08T09:00:00:Z","depth":0,"parameterNumber":2,"parameterNumberName":"U-component_of_WINDS"},"data":[0,0,0,0,0,0,0,0,0,0,0,0,0,0,0,0,0,0,0,0,0,0,0,0,0,0,0,0,0,0,0,0,0,0,0,0,0,0,0,0,0,0,0,0,0,0,0,0,0,0,0,0,0,0,0,0,0,0,-1.5796,-1.5796,0,-1.5842,-1.5843,-1.5843,-1.5762,-1.5759,-1.5757,-1.5754,-1.5806,-1.5809,-1.5813,0,0,0,0,0,0,0,0,0,0,0,0,0,-1.564,-1.5643,-1.5796,-1.5796,-1.5797,-1.5842,-1.5843,-1.5843,-1.5763,-1.5759,-1.5756,-1.5753,-1.5804,-1.5809,-1.5814,0,0,0,0,0,0,0,0,0,0,0,0,0,-1.5699,-1.5644,-1.5796,-1.5762,-1.5759,-1.5842,-1.5843,-1.5844,-1.5763,-1.5759,-1.5755,-1.5751,-1.5803,-1.5809,-1.5814,-1.5933,0,0,-1.5832,-1.5835,0,0,0,0,0,0,0,0,-1.5696,-1.5705,-1.5766,-1.5764,-1.5762,-1.5792,-1.5807,-1.5874,-1.5764,-1.5762,-1.5754,-1.5749,-1.5805,-1.581,-1.5828,-1.5936,-1.5938,-1.5833,-1.5836,-1.5839,-1.5841,0,0,0,0,0,0,0,-1.5692,-1.5703,-1.5814,-1.5767,-1.5765,-1.5745,-1.5749,-1.5819,-1.5806,-1.5762,-1.5756,-1.5763,-1.5803,-1.5823,-1.5829,-1.5939,-1.5833,-1.5838,-1.5842,-1.5844,-1.6147,-1.6152,0,0,0,0,0,0,-1.5692,-1.57,-1.5813,-1.5816,-1.5718,-1.5752,-1.5756,-1.5787,-1.5805,-1.5804,-1.5766,-1.5759,-1.5815,-1.5822,-1.583,-1.5972,-1.5839,-1.5844,-1.5848,-1.6143,-1.6148,-1.6153,0,0,0,0,0,0,-1.5689,-1.5702,-1.5811,-1.5756,-1.5768,-1.5759,-1.5794,-1.579,-1.581,-1.5808,-1.5806,-1.5789,-1.5812,-1.5822,-1.5908,-1.5973,-1.5847,-1.5852,-1.6137,-1.6144,-1.6151,-1.6257,0,0,0,0,0,0,-1.5684,-1.5702,-1.5746,-1.5758,-1.5772,-1.5888,-1.5798,-1.5794,-1.5819,-1.581,-1.5829,-1.5828,-1.5809,-1.59,-1.5914,-1.5979,-1.5857,-1.6132,-1.6141,-1.6149,-1.6248,-1.6266,-1.6282,0,0,0,0,0,-1.5679,-1.5775,-1.5749,-1.5763,-1.5827,-1.5892,-1.59,-1.5875,-1.5825,-1.587,-1.5869,-1.5827,-1.5963,-1.5909,-1.5925,-1.5992,-1.6128,-1.6138,-1.6148,-1.624,-1.6263,-1.6282,0,0,0,0,0,0,-1.5773,-1.5776,-1.5747,-1.5849,-1.5871,-1.5878,-1.5934,-1.59,-1.5937,-1.5927,-1.5896,-1.5901,-1.5994,-1.6001,-1.5942,-1.6109,-1.6037,-1.6051,-1.6102,-1.6123,-1.614,-1.6139,-1.5862,0,0,0,0,0,-1.5805,-1.5857,-1.5856,-1.5947,-1.5958,-1.5945,-1.5972,-1.5951,-1.5972,-1.5981,-1.5986,-1.601,-1.6058,-1.609,-1.6134,-1.6247,-1.6251,-1.6301,-1.6318,-1.6332,-1.6346,-1.6408,-1.6431,-1.6186,-1.6186,-1.6186,0,0,-1.5874,-1.5881,-1.5916,-1.5966,-1.598,-1.6035,-1.5953,-1.6014,-1.6056,-1.5991,-1.6073,-1.6078,-1.6102,-1.6202,-1.6247,-1.6211,-1.6414,-1.6345,-1.6357,-1.6363,-1.6421,-1.6444,-1.6464,-1.6193,-1.6192,-1.6191,0,0,-1.6026,-1.6036,-1.6113,-1.6128,-1.615,-1.614,-1.6158,-1.617,-1.6171,-1.6252,-1.6205,-1.6254,-1.6336,-1.6356,-1.6377,-1.6535,-1.6499,-1.655,-1.6643,-1.6704,-1.6723,-1.674,-1.6799,-1.6821,-1.6563,-1.6563,-1.6563,0,-1.6109,-1.6189,-1.6157,-1.6222,-1.6247,-1.6188,-1.6267,-1.6284,-1.6319,-1.6338,-1.6296,-1.6399,-1.6411,-1.6516,-1.6555,-1.6572,-1.6594,-1.655,-1.6722,-1.6739,-1.6755,-1.6811,-1.6833,-1.6569,-1.6568,-1.6568,-1.6567,0,-1.629,-1.6347,-1.6406,-1.6441,-1.6471,-1.6543,-1.6523,-1.6558,-1.6534,-1.6528,-1.6613,-1.6624,-1.667,-1.6692,-1.667,-1.6795,-1.6772,-1.6727,-1.6655,-1.6785,-1.6837,-1.6858,-1.6578,-1.6576,-1.6574,-1.6573,0,0,-1.6507,-1.6522,-1.6545,-1.6561,-1.6579,-1.6623,-1.6692,-1.6735,-1.6767,-1.6792,-1.6851,-1.6921,-1.688,-1.6903,-1.6882,-1.6934,-1.7063,-1.6883,-1.6883,-1.6919,-1.7204,-1.7241,-1.7266,-1.7037,-1.704,-1.7044,-1.7203,0,-1.6661,-1.678,-1.6753,-1.687,-1.6923,-1.6867,-1.6927,-1.6946,-1.6943,-1.6987,-1.6983,-1.7035,-1.6974,-1.6988,-1.7037,-1.7037,-1.712,-1.7024,-1.7094,-1.7097,-1.7093,-1.7293,-1.7332,-1.7483,-1.7223,-1.7226,-1.7229,0,-1.6858,-1.689,-1.7013,-1.7024,-1.7045,-1.7099,-1.7138,-1.718,-1.72,-1.7194,-1.722,-1.7188,-1.7257,-1.7181,-1.7278,-1.7213,-1.7239,-1.7243,-1.7248,-1.7257,-1.7174,-1.7311,-1.7529,-1.7554,-1.726,-1.7258,-1.7256,0,-1.7008,-1.7082,-1.7165,-1.7179,-1.7193,-1.7233,-1.7241,-1.7257,-1.7285,-1.7318,-1.7336,-1.7377,-1.7401,-1.7433,-1.7414,-1.736,-1.7515,-1.7437,-1.7514,-1.7515,-1.7553,-1.7551,-1.7782,-1.7563,-1.7563,-1.7563,-1.7562,0,-1.7185,-1.7263,-1.7233,-1.7285,-1.737,-1.7338,-1.7424,-1.7425,-1.744,-1.7492,-1.7445,-1.7495,-1.7464,-1.7512,-1.7497,-1.7581,-1.7591,-1.7589,-1.7585,-1.7596,-1.7597,-1.7616,-1.7606,-1.7568,-1.7567,-1.7566,-1.7565,0,-1.7369,-1.7351,-1.7439,-1.7444,-1.7447,-1.7511,-1.7515,-1.7564,-1.7555,-1.7622,-1.7636,-1.7623,-1.7677,-1.7659,-1.7717,-1.7707,-1.7814,-1.7795,-1.7808,-1.7805,-1.7884,-1.7878,-1.8139,-1.8172,-1.7928,-1.793,-1.7932,0,-1.7486,-1.7544,-1.7555,-1.7586,-1.7597,-1.7647,-1.7675,-1.7645,-1.7676,-1.7703,-1.7749,-1.7798,-1.7837,-1.7925,-1.7922,-1.7966,-1.795,-1.8038,-1.7957,-1.7966,-1.7955,-1.7954,-1.7961,-1.8056,-1.8058,-1.8061,-1.8063,0,-1.7695,-1.7683,-1.7725,-1.7764,-1.7798,-1.7827,-1.7853,-1.7881,-1.7852,-1.789,-1.7943,-1.7973,-1.8031,-1.8082,-1.8121,-1.813,-1.8094,-1.8087,-1.8108,-1.8122,-1.8129,-1.813,-1.7856,-1.8083,-1.8081,-1.8079,-1.8078,-1.8077,-1.7851,-1.7901,-1.7917,-1.7965,-1.798,-1.8005,-1.8051,-1.8048,-1.8092,-1.8137,-1.8115,-1.8179,-1.8197,-1.8246,-1.826,-1.831,-1.8276,-1.8306,-1.8314,-1.8323,-1.8335,-1.8117,-1.8316,-1.8316,-1.8315,-1.8315,-1.8314,0,-1.8062,-1.8068,-1.8113,-1.8149,-1.8187,-1.8145,-1.8171,-1.8206,-1.8262,-1.8281,-1.8319,-1.8382,-1.843,-1.843,-1.8475,-1.8515,-1.8499,-1.8528,-1.8527,-1.853,-1.836,-1.834,-1.854,-1.854,-1.854,-1.854,-1.854,-1.854,-1.8176,-1.8259,-1.8249,-1.834,-1.8345,-1.8406,-1.8425,-1.8448,-1.8463,-1.8535,-1.8574,-1.8572,-1.8585,-1.863,-1.8673,-1.8672,-1.8692,-1.8729,-1.8722,-1.8564,-1.8542,-1.8521,-1.8501,-1.8732,-1.8733,-1.8888,-1.8889,-1.889]},{"header":{"parameterUnit":"m.s-1","parameterCategory":1,"la1":30.2991,"la2":30.254,"lo1":-89.0895,"lo2":-89.0444,"dy":0.0017,"dx":0.0017,"nx":28,"ny":28,"refTime":"2024-10-08T09:00:00:Z","depth":0,"parameterNumber":3,"parameterNumberName":"V-component_of_WINDS"},"data":[0,0,0,0,0,0,0,0,0,0,0,0,0,0,0,0,0,0,0,0,0,0,0,0,0,0,0,0,0,0,0,0,0,0,0,0,0,0,0,0,0,0,0,0,0,0,0,0,0,0,0,0,0,0,0,0,0,0,-6.5803,-6.5803,0,-6.5845,-6.5845,-6.5846,-6.5703,-6.5699,-6.5695,-6.5691,-6.573,-6.5735,-6.574,0,0,0,0,0,0,0,0,0,0,0,0,0,-6.5596,-6.56,-6.5803,-6.5803,-6.5804,-6.5845,-6.5845,-6.5846,-6.5704,-6.5699,-6.5694,-6.5689,-6.5729,-6.5735,-6.5741,0,0,0,0,0,0,0,0,0,0,0,0,0,-6.5666,-6.5602,-6.5803,-6.5738,-6.5733,-6.5845,-6.5845,-6.5846,-6.5705,-6.5699,-6.5692,-6.5686,-6.5727,-6.5734,-6.5741,-6.5916,0,0,-6.5764,-6.5768,0,0,0,0,0,0,0,0,-6.5663,-6.5674,-6.5747,-6.5743,-6.5737,-6.5762,-6.5786,-6.5869,-6.5707,-6.5716,-6.5691,-6.5683,-6.5746,-6.5751,-6.5773,-6.5918,-6.592,-6.5765,-6.577,-6.5773,-6.5775,0,0,0,0,0,0,0,-6.5658,-6.5671,-6.5819,-6.5748,-6.5742,-6.5706,-6.5709,-6.5802,-6.5766,-6.5714,-6.5704,-6.5711,-6.5742,-6.5766,-6.5773,-6.592,-6.5765,-6.5772,-6.5776,-6.5779,-6.6211,-6.6217,0,0,0,0,0,0,-6.5662,-6.5668,-6.5818,-6.582,-6.5683,-6.5715,-6.5718,-6.5761,-6.5765,-6.5759,-6.5717,-6.5704,-6.5757,-6.5764,-6.5774,-6.5979,-6.5773,-6.578,-6.5784,-6.6204,-6.6212,-6.622,0,0,0,0,0,0,-6.5658,-6.5677,-6.5816,-6.5742,-6.5757,-6.5725,-6.5774,-6.5765,-6.5789,-6.5766,-6.5759,-6.5749,-6.5752,-6.5763,-6.5882,-6.5979,-6.5783,-6.579,-6.6196,-6.6206,-6.6216,-6.6392,0,0,0,0,0,0,-6.5653,-6.5676,-6.5743,-6.5744,-6.5761,-6.5925,-6.578,-6.577,-6.5803,-6.5787,-6.5794,-6.5789,-6.5748,-6.5872,-6.589,-6.5986,-6.5796,-6.6187,-6.62,-6.6213,-6.6377,-6.6407,-6.6432,0,0,0,0,0,-6.5646,-6.579,-6.5747,-6.5766,-6.5845,-6.5931,-6.5941,-6.5891,-6.5811,-6.5878,-6.5863,-6.5789,-6.5965,-6.5885,-6.5904,-6.6004,-6.618,-6.6196,-6.6212,-6.6365,-6.6401,-6.6431,0,0,0,0,0,0,-6.58,-6.5789,-6.5742,-6.5891,-6.5913,-6.5907,-6.599,-6.5931,-6.5975,-6.5959,-6.5893,-6.5896,-6.6027,-6.6026,-6.5938,-6.6173,-6.6059,-6.6079,-6.6169,-6.6203,-6.623,-6.6228,-6.5802,0,0,0,0,0,-6.5852,-6.5924,-6.591,-6.6043,-6.6057,-6.6022,-6.6058,-6.6017,-6.6037,-6.6046,-6.6039,-6.6061,-6.612,-6.6161,-6.6215,-6.6376,-6.6375,-6.6454,-6.6481,-6.6504,-6.6522,-6.6607,-6.6642,-6.6271,-6.6271,-6.627,0,0,-6.5958,-6.5961,-6.6011,-6.6074,-6.6087,-6.6162,-6.6031,-6.6116,-6.6171,-6.6058,-6.6171,-6.6167,-6.6186,-6.6327,-6.6389,-6.6331,-6.6625,-6.6524,-6.6542,-6.6548,-6.6627,-6.6662,-6.6694,-6.6281,-6.6279,-6.6278,0,0,-6.6192,-6.6202,-6.6314,-6.633,-6.6351,-6.6327,-6.6354,-6.6357,-6.6351,-6.6463,-6.638,-6.6443,-6.6548,-6.6565,-6.6588,-6.6828,-6.6762,-6.6847,-6.6991,-6.7075,-6.7104,-6.713,-6.7216,-6.7248,-6.6865,-6.6866,-6.6866,0,-6.6322,-6.6434,-6.6379,-6.6471,-6.6501,-6.6403,-6.6515,-6.6533,-6.657,-6.6593,-6.6527,-6.6657,-6.6663,-6.6807,-6.6865,-6.6887,-6.6915,-6.6847,-6.7105,-6.713,-6.7153,-6.7235,-6.7267,-6.6876,-6.6875,-6.6874,-6.6873,0,-6.6593,-6.6672,-6.6759,-6.68,-6.6839,-6.6941,-6.69,-6.6947,-6.6903,-6.6886,-6.7001,-6.7004,-6.7057,-6.7088,-6.7045,-6.7226,-6.719,-6.7116,-6.7,-6.72,-6.7276,-6.7306,-6.6891,-6.6887,-6.6884,-6.6882,0,0,-6.6925,-6.6934,-6.6968,-6.6985,-6.7001,-6.706,-6.7157,-6.721,-6.7252,-6.728,-6.736,-6.745,-6.7382,-6.7408,-6.7366,-6.744,-6.7631,-6.7357,-6.7356,-6.7408,-6.7831,-6.7887,-6.7924,-6.7587,-6.7592,-6.7597,-6.7829,0,-6.7156,-6.7324,-6.7277,-6.7444,-6.7516,-6.7424,-6.7508,-6.7527,-6.7513,-6.757,-6.7553,-6.762,-6.7525,-6.754,-6.7608,-6.7594,-6.7715,-6.7576,-6.7659,-6.7663,-6.7659,-6.7963,-6.8023,-6.8243,-6.7858,-6.7863,-6.7867,0,-6.7448,-6.749,-6.7665,-6.767,-6.7698,-6.7775,-6.782,-6.7877,-6.7895,-6.788,-6.7909,-6.7852,-6.7946,-6.783,-6.7958,-6.7864,-6.7895,-6.7893,-6.79,-6.7907,-6.7778,-6.7979,-6.8311,-6.8345,-6.7913,-6.7909,-6.7906,0,-6.7674,-6.7774,-6.7892,-6.7909,-6.7917,-6.7974,-6.7979,-6.7992,-6.8027,-6.8065,-6.8087,-6.8136,-6.8163,-6.8202,-6.816,-6.8078,-6.8295,-6.8174,-6.8284,-6.8286,-6.8335,-6.8333,-6.8678,-6.8354,-6.8353,-6.8353,-6.8352,0,-6.7937,-6.8048,-6.7994,-6.8067,-6.8188,-6.8132,-6.8253,-6.8248,-6.826,-6.8329,-6.8251,-6.8317,-6.8257,-6.8317,-6.8284,-6.8396,-6.8408,-6.8398,-6.8388,-6.8406,-6.8408,-6.8426,-6.841,-6.8361,-6.8359,-6.8358,-6.8356,0,-6.8211,-6.8179,-6.8302,-6.83,-6.8302,-6.8391,-6.8389,-6.8455,-6.8435,-6.8524,-6.8541,-6.851,-6.8577,-6.8539,-6.8607,-6.8585,-6.873,-6.8699,-6.8725,-6.8717,-6.883,-6.882,-6.92,-6.9247,-6.8892,-6.8895,-6.8898,0,-6.8381,-6.8465,-6.8472,-6.8514,-6.8525,-6.8593,-6.8629,-6.8576,-6.8617,-6.8644,-6.8708,-6.8768,-6.8815,-6.8926,-6.8909,-6.8961,-6.893,-6.906,-6.8938,-6.8953,-6.8934,-6.893,-6.8938,-6.9085,-6.9089,-6.9092,-6.9095,0,-6.8688,-6.8668,-6.8723,-6.8774,-6.882,-6.8857,-6.8887,-6.8925,-6.8872,-6.8921,-6.899,-6.9026,-6.9096,-6.9158,-6.9202,-6.9206,-6.9143,-6.9134,-6.9162,-6.9182,-6.9194,-6.919,-6.8793,-6.9125,-6.9122,-6.912,-6.9119,-6.9117,-6.8915,-6.8986,-6.9002,-6.9067,-6.9084,-6.9114,-6.9177,-6.9166,-6.9223,-6.9277,-6.9242,-6.9323,-6.9339,-6.9392,-6.9404,-6.9466,-6.9414,-6.9455,-6.9465,-6.9477,-6.9493,-6.9183,-6.9473,-6.9473,-6.9472,-6.9471,-6.947,0,-6.9219,-6.9225,-6.9285,-6.9331,-6.9381,-6.9318,-6.9348,-6.9394,-6.9467,-6.9488,-6.9535,-6.9614,-6.9673,-6.9661,-6.9714,-6.9766,-6.9738,-6.9782,-6.9778,-6.978,-6.9536,-6.9506,-6.9803,-6.9803,-6.9803,-6.9803,-6.9803,-6.9803,-6.9383,-6.9498,-6.9481,-6.9604,-6.9608,-6.9689,-6.9712,-6.9739,-6.9755,-6.9847,-6.9897,-6.9889,-6.9896,-6.9949,-7.0,-6.9995,-7.0018,-7.0073,-7.0058,-6.983,-6.9797,-6.9766,-6.9738,-7.0078,-7.0079,-7.0296,-7.0298,-7.03]}]]